Weather in Verkhnecherensky

Russia / Volgograd Oblast     49°13′04″N   42°40′43″E
temp.,
°C
wind,
m/s
gust,
m/s
humid.,
%
clouds,
%
prec.,
mm/h
press.,
hPa
HPBL,
m
3 august, tue
tue300:00+28ssw353433 0.0 101088
03:00+25sse114116 0.0 101014
06:00+26wsw224163 0.0 101036
09:00+33w232792 0.0 1011710
12:00+36ssw352126 0.0 10103474
15:00+37w4419100 0.0 10093656
18:00+31ene1129100 0.1 100917
21:00+24n8146520 0.1 1011459
4 august, wed
wed400:00+23n3767100 0.3 1012371
03:00+21n3682100 0.9 1012225
06:00+21n2380100 0.7 1012125
09:00+26nw455398 0.7 1014776
12:00+29wnw4542100 0.0 10141819
15:00+31nw663349 0.0 10132785
18:00+29nw65315 0.0 10142196
21:00+24n71248100 0.0 1015473
5 august, thu
thu500:00+22n4957100 0.0 1016256
03:00+20n3761100 0.0 1016158
06:00+19n37595 0.0 1017196
09:00+26nne45385 0.0 10171100
12:00+29nne44265 0.0 10162238
15:00+31nne432315 0.0 10152567
18:00+29ne4426100 0.0 10151413
21:00+24ne4103813 0.0 1016196
6 august, fri
fri600:00+22ene41141100 0.0 1015207
03:00+20ene410460 0.0 1015175
06:00+20e411470 0.0 1015226
09:00+28ese57305 0.0 1014862
12:00+32se55241 0.0 10132501
15:00+34ese45200 0.0 10113047
18:00+33se452212 0.0 10101507
21:00+28ese6142866 0.0 1011330
7 august, sat
sat700:00+27ese61526100 0.0 1011387
03:00+26se71626100 0.0 1011462
06:00+25se61527100 0.0 1011427
09:00+30se71123100 0.0 1011690
12:00+32ese6819100 0.0 10111617
15:00+35ese6616100 0.0 10102418
18:00+32e5819100 0.0 1010374
21:00+28e51023100 0.0 1011217